Flag for Greece

Past Weather in Mykonos, Greece — Yesterday and Last 2 Weeks

Now
68 °F

Mild.


Feels Like: 68 °F
Forecast: 68 / 65 °F
Wind: 21 mph from North

Location: Syros Airport
Current Time: Oct 20, 2020 at 1:12:04 am
Latest Report: Oct 20, 2020 at 12:20 am
Visibility: N/A
Pressure30.15 "Hg
Humidity: 64%
Dew Point: 55 °F
Location of MykonosLocation

Past Weather in Mykonos — Graph

°F

Mykonos Temperature Yesterday

Maximum temperature yesterday: 73 °F (at 9:50 am)
Minimum temperature yesterday: 68 °F (at 12:20 am)
Average temperature yesterday: 69 °F

High & Low Weather Summary for the Past Weeks

 TemperatureHumidityPressure
High93 °F (Oct 7, 3:20 pm)94% (Oct 6, 5:50 am)30.15 "Hg (Oct 6, 5:50 am)
Low64 °F (Oct 10, 5:50 am)24% (Oct 7, 3:20 pm)29.74 "Hg (Oct 13, 7:20 am)
Average73 °F69%29.98 "Hg
* Reported Oct 4 11:20 pm — Oct 19 11:20 pm, Mykonos. Weather by CustomWeather, © 2020

Note: Actual official high and low records may vary slightly from our data, if they occured in-between our weather recording intervals... More about our weather records

Mykonos Weather History for the Previous 24 Hours

Scroll right to see more
 ConditionsComfort  
Time TempWeatherWind HumidityBarometerVisibility
11:20 pm
Mon, Oct 19
68 °FMild.24 mph64%30.15 "HgN/A
10:20 pm68 °FLight rain. Overcast.23 mph64%30.15 "HgN/A
9:50 pm68 °FMild.22 mph69%30.15 "HgN/A
9:20 pm68 °FMild.23 mph64%30.15 "HgN/A
8:50 pm68 °FMild.22 mph64%30.15 "HgN/A
8:20 pm68 °FLight rain. Overcast.21 mph64%30.15 "HgN/A
7:50 pm68 °FMild.23 mph69%30.12 "HgN/A
7:20 pm68 °FPassing clouds.21 mph69%30.12 "HgN/A
6:50 pm68 °FPassing clouds.18 mph69%30.12 "HgN/A
6:20 pm68 °FPassing clouds.16 mph69%30.12 "HgN/A
5:50 pm68 °FPassing clouds.16 mph73%30.12 "HgN/A
5:20 pm68 °FMild.20 mph69%30.12 "HgN/A
4:50 pm70 °FMild.18 mph64%30.12 "HgN/A
4:20 pm72 °FMild.16 mph65%30.12 "HgN/A
3:50 pm72 °FMild.20 mph61%30.09 "HgN/A
2:50 pm73 °FPassing clouds.16 mph65%30.09 "HgN/A
1:50 pm73 °FPassing clouds.13 mph65%30.12 "HgN/A
10:50 am73 °FPassing clouds.12 mph65%30.09 "HgN/A
9:50 am73 °FPassing clouds.10 mph57%30.09 "HgN/A
8:50 am70 °FPassing clouds.16 mph73%30.07 "HgN/A
8:20 am68 °FPassing clouds.14 mph78%30.04 "HgN/A
7:50 am68 °FMild.13 mph78%30.04 "HgN/A
7:20 am68 °FMild.9 mph73%30.07 "HgN/A
6:50 am68 °FMild.9 mph73%30.04 "HgN/A
6:20 am68 °FMild.8 mph64%30.04 "HgN/A
5:50 am70 °FMild.10 mph64%30.04 "HgN/A
5:20 am68 °FMild.9 mph60%30.04 "HgN/A
4:20 am68 °FMild.10 mph60%30.04 "HgN/A
3:50 am68 °FMild.9 mph64%30.04 "HgN/A
2:50 am68 °FMild.9 mph73%30.04 "HgN/A
2:20 am70 °FMild.13 mph64%30.04 "HgN/A
1:50 am70 °FMild.14 mph64%30.01 "HgN/A
Weather by CustomWeather, © 2020

See weather overview